This demonstration page uses our WeatherBlox Daily Observations layout. Learn more.

Left ArrowRight Arrow

Hourly Observations for July 3, 2021

Temp ( °F °C ) Dew Point ( °F °C ) Humidity (%) Winds ( mph kmh ) Pressure ( in mb ) Visibility ( mi km ) Precip ( " mm )
12:56 am 00:56 Partly Cloudy 66 18.9 61 16.1 84 84 SE 7 11 30.07 1018 10 16 0.00 0.00
1:56 am 01:56 Mostly Clear 65 18.3 61 16.1 87 87 SE 9 15 30.06 1018 10 16 0.00 0.00
2:56 am 02:56 Clear 65 18.3 60 15.6 84 84 SSE 6 9 30.06 1018 10 16 0.00 0.00
3:56 am 03:56 Clear 64 17.8 60 15.6 87 87 SSE 7 11 30.06 1018 10 16 0.00 0.00
4:56 am 04:56 Clear 63 17.2 60 15.6 90 90 S 6 9 30.05 1018 10 16 0.00 0.00
5:56 am 05:56 Clear 64 17.8 61 16.1 90 90 SSW 8 13 30.04 1017 10 16 0.00 0.00
6:56 am 06:56 Sunny 66 18.9 62 16.7 87 87 SSW 5 7 30.05 1018 10 16 0.00 0.00
7:56 am 07:56 Sunny 70 21.1 63 17.2 79 79 S 7 11 30.05 1018 10 16 0.00 0.00
8:56 am 08:56 Sunny 74 23.3 65 18.3 74 74 SSW 14 22 30.04 1017 9 14 0.00 0.00
9:56 am 09:56 Sunny 78 25.6 66 18.9 67 67 SSW 13 20 30.04 1017 10 16 0.00 0.00
10:56 am 10:56 Sunny 80 26.7 67 19.4 64 64 S 13 20 30.03 1017 10 16 0.00 0.00
11:56 am 11:56 Partly Cloudy 82 27.8 67 19.4 60 60 S 14 22 30.02 1017 10 16 0.00 0.00
12:56 pm 12:56 Mostly Cloudy 83 28.3 64 17.8 53 53 S 15 24 30.01 1016 10 16 0.00 0.00
1:56 pm 13:56 Partly Cloudy 86 30 65 18.3 49 49 S 20 31 29.98 1015 10 16 0.00 0.00
2:56 pm 14:56 Mostly Cloudy 85 29.4 64 17.8 50 50 SSE 16 26 29.97 1015 10 16 0.00 0.00
3:56 pm 15:56 Partly Cloudy 87 30.6 65 18.3 48 48 S 13 20 29.96 1015 10 16 0.00 0.00
4:56 pm 16:56 Partly Cloudy 88 31.1 65 18.3 46 46 S 16 26 29.93 1014 10 16 0.00 0.00
5:56 pm 17:56 Sunny 86 30 64 17.8 48 48 S 13 20 29.92 1013 10 16 0.00 0.00
6:56 pm 18:56 Sunny 85 29.4 64 17.8 50 50 S 15 24 29.90 1013 10 16 0.00 0.00
7:56 pm 19:56 Sunny 83 28.3 64 17.8 53 53 SSE 12 19 29.90 1013 10 16 0.00 0.00
8:56 pm 20:56 Sunny 77 25 61 16.1 58 58 SSE 10 17 29.91 1013 10 16 0.00 0.00
9:56 pm 21:56 Clear 74 23.3 60 15.6 62 62 S 10 17 29.93 1014 10 16 0.00 0.00
10:56 pm 22:56 Clear 73 22.8 59 15 62 62 SSE 12 19 29.93 1014 10 16 0.00 0.00
11:56 pm 23:56 Clear 72 22.2 58 14.4 61 61 S 10 17 29.92 1013 10 16 0.00 0.00

Powered by AerisWeather